Regional Weather Roundup
Issued by NWS

Home | Current Version | Previous Version | Text Only | Print | Product List | Glossary Off
Versions: 1 2 3 4 5 6 7 8 9 10 11 12 13 14 15 16 17 18 19 20 21 22 23 24 25 26 27 28 29 30 31 32 33 34 35 36 37 38 39 40 41 42 43 44 45 46 47 48 49 50

000
ASUS43 KLOT 270312
RWRIL

ILLINOIS REGIONAL WEATHER ROUNDUP
NATIONAL WEATHER SERVICE CHICAGO/ROMEOVILLE IL
1000 PM CDT THU MAR 26 2015

NOTE: "FAIR" INDICATES FEW OR NO CLOUDS BELOW 12,000 FEET WITH NO
SIGNIFICANT WEATHER AND/OR OBSTRUCTIONS TO VISIBILITY.

* THESE STATIONS ARE NOT UNDER NWS QUALITY CONTROL. THEY ALSO MAY NOT
  REPORT WEATHER SUCH AS PRECIPITATION OR FOG.

ILZ001-002-007-009-015-016-024-270400-
NORTHWEST ILLINOIS

CITY           SKY/WX    TMP DP  RH WIND       PRES   REMARKS
MOLINE         CLEAR     32  20  61 NW8       30.11R WCI  25
STERLING*      CLOUDY    34  21  60 NW8       30.09S WCI  27
SAVANNA*       CLOUDY    34  19  53 NW6       30.10R WCI  29
$$

ILZ003-004-008-010-011-017-018-270400-
NORTH CENTRAL ILLINOIS

CITY           SKY/WX    TMP DP  RH WIND       PRES   REMARKS
ROCKFORD       CLOUDY    34  21  59 NE17      30.09R WCI  23
FREEPORT*      CLOUDY    32  20  61 N8        30.09R WCI  25
ROCHELLE*      CLOUDY    32  23  69 NW7       30.07R WCI  26
DE KALB*       CLOUDY    31  22  66 N3        30.06R
PERU*          CLOUDY    34  27  74 NW8       30.09R WCI  28
$$

ILZ005-006-012>014-019>023-270400-
NORTHEAST ILLINOIS

CITY           SKY/WX    TMP DP  RH WIND       PRES   REMARKS
CHICAGO-OHARE  CLOUDY    34  22  61 N14       30.05R WCI  25
CHICAGO-MIDWAY FLURRIES  38  20  48 NW10      30.05R WCI  31
AURORA         CLOUDY    34  22  61 NW3       30.06R
LANSING*       CLOUDY    36  24  62 NE7       30.05S WCI  30
JOLIET*        MOCLDY    37  23  57 N6        30.06S WCI  32
WAUKEGAN       CLOUDY    31  18  58 NW9       30.06R WCI  23
DUPAGE AIRPORT CLOUDY    34  21  59 NW7       30.05R WCI  28
KANKAKEE*      CLOUDY    35  26  69 NW3       30.05S
WHEELING       CLOUDY    33  19  56 N14G20    30.08R WCI  23
MORRIS*        CLOUDY    33  25  72 N3        30.06R
ROMEOVILLE*    CLOUDY    35  21  56 N8        30.06R WCI  28
NORTHERLY ISL    N/A     34  26  73 N15         N/A  WCI  24
$$

LMZ740>746-270400-
SOUTHERN LAKE MICHIGAN

STATION/POSITION SKY/WX   TEMP    WIND        PRES    VSBY  WAVE
                          AIR SEA DIR/SP/G                  HT/PER
                          (F)     (DEG/KT/KT) (MB)    (MI)  (FT/S)
HARRISON CRIB              35      10/ 15/ 17   N/A
BURNHAM HARBOR             34      10/ 14/ 15   N/A
CALUMET HARBOR             36     350/  9/ 12 1016.2R
BURNS HARBOR               35      20/ 10/ 12 1017.6R
MICHIGAN CITY              33     350/ 12/ 12   N/A
$$

ILZ025>027-034>036-040-047-049-050-058-095>099-270400-
WEST-CENTRAL ILLINOIS

CITY           SKY/WX    TMP DP  RH WIND       PRES   REMARKS
QUINCY         CLOUDY    41  26  55 N9        30.08R
GALESBURG*     CLEAR     32  25  74 N10       30.10R WCI  24
MACOMB*        PTCLDY    34  26  74 N13       30.12R WCI  25
JACKSONVILLE*  MOCLDY    41  31  66 NW7       30.07R
PITTSFIELD*    MOCLDY    42  30  61 NW9       30.08S
$$

ILZ028>032-037-038-041>044-048-051>054-059>061-270400-
CENTRAL ILLINOIS

CITY           SKY/WX    TMP DP  RH WIND       PRES   REMARKS
PONTIAC        MOCLDY    34  28  78 N7        30.06S WCI  28
BLOOMINGTON    CLEAR     36  28  73 N9        30.06R WCI  29
DECATUR        CLEAR     37  24  59 N8        30.04S WCI  31
PEORIA         FAIR      37  23  56 N8        30.08R WCI  31
LACON*         CLOUDY    34  24  65 N8        30.08R WCI  28
LINCOLN*       CLEAR     38  27  64 NW3       30.07R
SPRINGFIELD    MOCLDY    43  25  49 N13       30.06S
TAYLORVILLE    CLEAR     37  28  70 NW5       30.05S WCI  34
$$

ILZ033-039-045-046-055>057-062-063-270400-
EAST-CENTRAL ILLINOIS

CITY           SKY/WX    TMP DP  RH WIND       PRES   REMARKS
CHAMPAIGN      CLEAR     35  27  72 NE6       30.03S WCI  30
DANVILLE*      CLEAR     31  27  84 N6        30.01S WCI  26
RANTOUL*       CLEAR     35  28  74 N7        30.04R WCI  30
MATTOON        CLEAR     34  29  82 NW6       30.03S WCI  29
PARIS*         CLEAR     37  29  74 N3        30.04S
$$

ILZ079-100>102-270400-
SOUTHWEST ILLINOIS

CITY           SKY/WX    TMP DP  RH WIND       PRES   REMARKS
BELLEVILLE     CLEAR     39  29  68 N3        30.06S
CAHOKIA*       CLEAR     40  27  59 CALM      30.07S
SPARTA*        CLEAR     41  30  64 N3        30.07F
$$

ILZ064>066-069>071-074>076-080>082-084>086-088>090-092>094-270400-
SOUTH-CENTRAL ILLINOIS

CITY           SKY/WX    TMP DP  RH WIND       PRES   REMARKS
CARBONDALE     CLEAR     38  31  76 CALM      30.05F
CAIRO*         CLEAR     40  35  82 E3        30.06S
EFFINGHAM*     CLEAR     39  27  62 NW5       30.06S
MARION         CLEAR     39  32  75 CALM      30.06S
MT. VERNON     CLEAR     34  27  75 CALM      30.05F
CENTRALIA*     CLEAR     38  31  76 CALM      30.05F
SALEM*         CLEAR     42  30  63 NW5       30.05F
METROPOLIS*    CLEAR     37  35  92 CALM      30.06R
$$

ILZ067-068-072-073-078-083-087-091-270400-
SOUTHEAST ILLINOIS

CITY           SKY/WX    TMP DP  RH WIND       PRES   REMARKS
LAWRENCEVILLE  CLEAR     38  31  76 NW5       30.04R WCI  34
FLORA*         CLEAR     39  32  74 NW5       30.04F
FAIRFIELD*     CLEAR     40  32  71 CALM      30.04S
HARRISBURG*    CLEAR     38  33  83 CALM      30.06S
ROBINSON*      CLEAR     38  32  79 CALM      30.05R
CARMI*         CLEAR     41  34  75 NW3       30.04F
$$

ABBREVIATIONS USED IN REMARKS
   TC - TEMPERATURE IN CELSIUS
  WCI - WIND CHILL INDEX
   HX - HEAT INDEX
  VSB - VISIBILITY
$$



USA.gov is the U.S. government's official web portal to all federal, state and local government web resources and services.